This is the latest recevied weather packets stored in our database for station/object K1JO. If no packets are shown the sender has not sent any weather packets the latest 10 day(s).
| Time | Temp. | Humidity | Pressure | Rain* | Wind** | Luminosity | Snow |
|---|---|---|---|---|---|---|---|
| 1777422072 | 8.89° C | 45% | 1018.1 hPa | 0 mm | - | 0 W/m² | - |
| 1777421767 | 9.44° C | 42% | 1018 hPa | 0 mm | - | 0 W/m² | - |
| 1777421463 | 10° C | 41% | 1018.1 hPa | 0 mm | - | 0 W/m² | - |
| 1777421159 | 9.44° C | 40% | 1018 hPa | 0 mm | - | 0 W/m² | - |
| 1777420856 | 8.89° C | 42% | 1017.9 hPa | 0 mm | - | 0 W/m² | - |
| 1777420551 | 9.44° C | 42% | 1017.9 hPa | 0 mm | - | 0 W/m² | - |
| 1777420248 | 10° C | 38% | 1018 hPa | 0 mm | - | 0 W/m² | - |
| 1777419943 | 10° C | 36% | 1017.9 hPa | 0 mm | - | 1 W/m² | - |
| 1777419641 | 10.56° C | 35% | 1017.8 hPa | 0 mm | - | 2 W/m² | - |
| 1777419339 | 11.67° C | 32% | 1017.9 hPa | 0 mm | - | 3 W/m² | - |
| 1777419038 | 11.67° C | 32% | 1017.8 hPa | 0 mm | - | 4 W/m² | - |
| 1777418737 | 12.22° C | 31% | 1017.7 hPa | 0 mm | - | 6 W/m² | - |
| 1777418434 | 12.22° C | 30% | 1017.8 hPa | 0 mm | - | 8 W/m² | - |
| 1777418130 | 12.22° C | 31% | 1017.8 hPa | 0 mm | - | 10 W/m² | - |
| 1777417827 | 12.78° C | 31% | 1017.9 hPa | 0 mm | - | 13 W/m² | - |
| 1777417527 | 12.78° C | 32% | 1017.7 hPa | 0 mm | - | 16 W/m² | - |
| 1777417224 | 12.78° C | 30% | 1017.4 hPa | 0 mm | - | 20 W/m² | - |
| 1777416920 | 12.78° C | 28% | 1017.4 hPa | 0 mm | - | 22 W/m² | - |
| 1777416615 | 13.33° C | 27% | 1017.2 hPa | 0 mm | - | 25 W/m² | - |
| 1777416311 | 13.33° C | 26% | 1017.4 hPa | 0 mm | - | 27 W/m² | - |
| 1777416010 | 13.33° C | 25% | 1017.3 hPa | 0 mm | - | 29 W/m² | - |
| 1777415706 | 13.89° C | 25% | 1017.4 hPa | 0 mm | - | 30 W/m² | - |
| 1777415402 | 13.89° C | 27% | 1017.1 hPa | 0 mm | - | 32 W/m² | - |
| 1777415102 | 13.89° C | 26% | 1017.4 hPa | 0 mm | - | 34 W/m² | - |
| 1777414796 | 14.44° C | 26% | 1017.3 hPa | 0 mm | - | 35 W/m² | - |
* Rain latest hour (hover to see other rain measurements)
** Current wind speed in m/s (hover to see current wind gust speed)